Regional Weather Roundup
Issued by NWS

Home | Current Version | Previous Version | Text Only | Print | Product List | Glossary Off
Versions: 1 2 3 4 5 6 7 8 9 10 11 12 13 14 15 16 17 18 19 20 21 22 23 24 25 26 27 28 29 30 31 32 33 34 35 36 37 38 39 40 41 42 43 44 45 46 47 48 49 50

000
ASUS43 KLOT 091608
RWRIL

ILLINOIS REGIONAL WEATHER ROUNDUP
NATIONAL WEATHER SERVICE CHICAGO/ROMEOVILLE IL
1000 AM CST TUE FEB 09 2016

NOTE: "FAIR" INDICATES FEW OR NO CLOUDS BELOW 12,000 FEET WITH NO
SIGNIFICANT WEATHER AND/OR OBSTRUCTIONS TO VISIBILITY.

* THESE STATIONS ARE NOT UNDER NWS QUALITY CONTROL. THEY ALSO MAY NOT
  REPORT WEATHER SUCH AS PRECIPITATION OR FOG.

ILZ001-002-007-009-015-016-024-091700-
NORTHWEST ILLINOIS

CITY           SKY/WX    TMP DP  RH WIND       PRES   REMARKS
MOLINE         CLOUDY    16   5  62 NW22G28   29.96R WCI  -2
STERLING*      MOSUNNY   16   5  62 NW20G25   29.89S WCI  -1
SAVANNA*       CLOUDY    14   5  67 NW16      29.94S WCI  -2
$$

ILZ003-004-008-010-011-017-018-091700-
NORTH CENTRAL ILLINOIS

CITY           SKY/WX    TMP DP  RH WIND       PRES   REMARKS
ROCKFORD       LGT SNOW  14   7  73 N17G24    29.90R WCI  -3
FREEPORT*      CLOUDY    12   5  74 NW18      29.91S HAZE    WCI  -6
ROCHELLE*      LGT SNOW  15  10  79 NW16      29.88S WCI  -1
DE KALB*       LGT SNOW  14   8  79 NW16G22   29.85R WCI  -2
$$

ILZ005-006-012>014-019>023-091700-
NORTHEAST ILLINOIS

CITY           SKY/WX    TMP DP  RH WIND       PRES   REMARKS
CHICAGO-OHARE  LGT SNOW  15   8  73 NW15      29.83R WCI   0
CHICAGO-MIDWAY FLURRIES  17   8  67 NW16      29.83R WCI   2
AURORA         LGT SNOW  16   9  74 NW17      29.86R WCI   0
LANSING*       LGT SNOW  18  11  75 NW14      29.82R WCI   4
JOLIET*        CLOUDY    18  10  71 N12G20    29.86R WCI   6
WAUKEGAN       MOSUNNY   15   7  70 NW13G22   29.81R WCI   1
DUPAGE AIRPORT MIX PCPN  15   6  67 N16       29.83R WCI  -1
KANKAKEE*      FLURRIES  18  11  72 NW16      29.84R WCI   4
WHEELING       CLOUDY    15   7  70 NW14      29.84R WCI   0
MORRIS*        LGT SNOW  17  10  75 NW15      29.84R WCI   2
ROMEOVILLE*    LGT SNOW  16   9  74 NW13      29.84R WCI   2
NORTHERLY ISL    N/A     18  11  74 NW15        N/A  WCI   4
$$

LMZ740>746-091700-
SOUTHERN LAKE MICHIGAN

STATION/POSITION SKY/WX   TEMP    WIND        PRES    VSBY  WAVE
                          AIR SEA DIR/SP/G                  HT/PER
                          (F)     (DEG/KT/KT) (MB)    (MI)  (FT/S)
HARRISON CRIB              17     310/ 18/ 20   N/A
BURNHAM HARBOR             18     300/  9/ 16   N/A
CALUMET HARBOR             17     280/  8/ 15 1008.9R
BURNS HARBOR               21     320/ 19/ 25 1009.1R
MICHIGAN CITY              24     290/ 22/ 24   N/A
$$

ILZ025>027-034>036-040-047-049-050-058-095>099-091700-
WEST-CENTRAL ILLINOIS

CITY           SKY/WX    TMP DP  RH WIND       PRES   REMARKS
QUINCY         LGT SNOW  15   8  73 NW23G32   30.01R WCI  -3
GALESBURG*     CLOUDY    15   8  72 NW18G24   29.95R WCI  -1
MACOMB*        PTSUNNY   16   9  73 NW28G35   30.00R WCI  -3
JACKSONVILLE*  LGT SNOW  19  14  79 NW17      29.97S WCI   4
PITTSFIELD*    CLOUDY    17   9  71 NW17G23   30.01R WCI   1
$$

ILZ028>032-037-038-041>044-048-051>054-059>061-091700-
CENTRAL ILLINOIS

CITY           SKY/WX    TMP DP  RH WIND       PRES   REMARKS
PONTIAC        LGT SNOW  17  13  83 NW18      29.89R WCI   1
BLOOMINGTON    LGT SNOW  16  11  80 NW18      29.89R WCI   0
DECATUR        LGT SNOW  18  12  77 NW16G22   29.91R WCI   3
PEORIA         CLOUDY    16   6  65 NW13G22   29.94R WCI   2
LACON*         CLOUDY    15   6  67 NW16G24   29.92R WCI  -1
LINCOLN*       LGT SNOW  17  12  79 NW10G18   29.93R WCI   5
SPRINGFIELD    LGT SNOW  18  11  74 NW17      29.95S WCI   3
TAYLORVILLE    LGT SNOW  18  10  73 NW15G25   29.95R WCI   3
$$

ILZ033-039-045-046-055>057-062-063-091700-
EAST-CENTRAL ILLINOIS

CITY           SKY/WX    TMP DP  RH WIND       PRES   REMARKS
CHAMPAIGN      LGT SNOW  19  13  77 NW18      29.87R WCI   4
RANTOUL*       LGT SNOW  19  15  82 NW16G23   29.86R WCI   5
MATTOON        FLURRIES  18  11  74 NW23      29.88R WCI   0
PARIS*         CLOUDY    20  13  76 NW13      29.87R WCI   7
$$

ILZ079-100>102-091700-
SOUTHWEST ILLINOIS

CITY           SKY/WX    TMP DP  RH WIND       PRES   REMARKS
ALTON          LGT SNOW  18  10  73 NW17G26   29.99R WCI   2
BELLEVILLE     LGT SNOW  20  13  74 NW18G24   29.98R WCI   5
CAHOKIA*       CLOUDY    21  10  62 NW23G29   30.01R HAZE    WCI   5
SPARTA*        LGT SNOW  19  14  79 NW13G20   29.99R WCI   6
$$

ILZ064>066-069>071-074>076-080>082-084>086-088>090-092>094-091700-
SOUTH-CENTRAL ILLINOIS

CITY           SKY/WX    TMP DP  RH WIND       PRES   REMARKS
CARBONDALE     LGT SNOW  21  15  78 N13       29.98R VSB 1   WCI   9
CAIRO*         LGT SNOW  24  19  83 NW10      29.99R WCI  13
EFFINGHAM*     LGT SNOW  19  14  79 W18       29.93R WCI   4
MARION         LGT SNOW  21  16  79 NW17      29.98R WCI   7
MT. VERNON     CLOUDY    19  10  68 W6        29.95R WCI  11
CENTRALIA*     LGT SNOW  20  16  82 NW16      29.95R WCI   6
SALEM*         LGT SNOW  20  14  77 NW15G21   29.94R WCI   6
METROPOLIS*    LGT SNOW  22  20  91 NW6       29.98R WCI  15
$$

ILZ067-068-072-073-078-083-087-091-091700-
SOUTHEAST ILLINOIS

CITY           SKY/WX    TMP DP  RH WIND       PRES   REMARKS
LAWRENCEVILLE  LGT SNOW  20  14  77 NW14      29.90R WCI   7
FLORA*         CLOUDY    22  12  65 NW20G25   29.94R WCI   7
FAIRFIELD*     CLOUDY    21  10  62 NW12G21   29.93R WCI   9
HARRISBURG*    CLOUDY    22  16  76 NW13G20   29.96S WCI  10
ROBINSON*      LGT SNOW  20  15  79 NW13      29.90R WCI   8
CARMI*         FLURRIES  21  14  75 NW15      29.94R WCI   8
$$

ABBREVIATIONS USED IN REMARKS
   TC - TEMPERATURE IN CELSIUS
  WCI - WIND CHILL INDEX
   HX - HEAT INDEX
  VSB - VISIBILITY
$$





USA.gov is the U.S. government's official web portal to all federal, state and local government web resources and services.